Flag for Canada Weather past 2 weeks in St. Albert, Alberta, Canada

Now
81 °F

Pleasantly warm.


Feels Like: 80 °F
Forecast: 59 / 81 °F
Wind: 13 mph from North

Location: Edmonton Municipal

Current Time: Jul 3, 2015 at 12:29:26 PM

Latest Report: Jul 3, 2015 at 12:00 PM


Visibility: N/A

Pressure: 29.82 "Hg (27.68 "Hg at 653m altitude)

Humidity: 33%

Dew point: 50 °F

Location of St. AlbertLocation

Historic Weather in St. Albert — Graph

°F

St. Albert temperature yesterday

Maximum temperature yesterday: 85 °F (at 6:00 PM)
Minimum temperature yesterday: 58 °F (at 5:00 AM)
Average temperature yesterday: 74 °F

Past Weeks' High & Low Weather Summary

 TemperatureHumidityPressure
High89 °F (Jun 28, 4:00 PM)97% (Jun 19, 8:00 PM)30.09 "Hg (Jun 19, 8:00 PM)
Low47 °F (Jun 20, 5:00 AM)18% (Jun 28, 7:00 PM)29.77 "Hg (Jun 19, 2:00 PM)
Average68 °F57%29.97 "Hg
* Reported Jun 18 11:00 AM — Jul 3 11:00 AM, St. Albert, Weather by CustomWeather, © 2015

Note: Actual official high and low records may vary slightly from our data, if they occured in-between our weather recording intervals... More about our weather records

Advertising

St. Albert weather history for previous 24 hours

 ConditionsComfort  
Time TempWeatherWind HumidityBarometerVisibility
11:00 AM
Fri, Jul 3
80 °FPleasantly warm.13 mph36%29.81 "HgN/A
10:00 AM76 °FMild.9 mph44%29.81 "HgN/A
9:00 AM75 °FMild.6 mph57%29.80 "HgN/A
8:00 AM71 °FMild.5 mph64%29.81 "HgN/A
7:00 AM67 °FMild.6 mph71%29.81 "HgN/A
6:00 AM64 °FMild.5 mph78%29.82 "HgN/A
5:00 AM65 °FMild.3 mph75%29.83 "HgN/A
4:00 AM65 °FMild.6 mph75%29.83 "HgN/A
3:00 AM65 °FMild.5 mph73%29.85 "HgN/A
2:00 AM67 °FMild.5 mph69%29.86 "HgN/A
1:00 AM70 °FMild.6 mph64%29.87 "HgN/A
12:00 AM71 °FMild.8 mph61%29.88 "HgN/A
11:00 PM
Thu, Jul 2
75 °FMild.8 mph46%29.88 "HgN/A
10:00 PM77 °FMild.7 mph43%29.89 "HgN/A
9:00 PM80 °FPleasantly warm.9 mph35%29.90 "HgN/A
8:00 PM81 °FPleasantly warm.5 mph30%29.91 "HgN/A
7:00 PM85 °FPleasantly warm.5 mph25%29.93 "HgN/A
6:00 PM85 °FPleasantly warm.8 mph23%29.94 "HgN/A
5:00 PM84 °FPleasantly warm.5 mph26%29.96 "HgN/A
4:00 PM85 °FPleasantly warm.3 mph28%29.97 "HgN/A
3:00 PM84 °FPleasantly warm.8 mph28%30.00 "HgN/A
2:00 PM83 °FPleasantly warm.7 mph28%30.01 "HgN/A
1:00 PM82 °FPleasantly warm.7 mph30%30.03 "HgN/A
12:00 PM81 °FPleasantly warm.8 mph35%30.05 "HgN/A
Weather by CustomWeather, © 2015

See weather overviewHow to use our weather pages